Glendive, MT

7:10 AM MDT on June 28, 2017 (GMT -0600)
Dawson Community

Weather History for KGDV - April, 2013

Change the Weather History Date:

Monday, April 1, 2013

  Actual Average Record
Temperature  
Mean Temperature 19 °F -  
Max Temperature 21 °F 46 °F 66 °F (2005)
Min Temperature 17 °F 24 °F 3 °F (2014)
Degree Days  
Heating Degree Days 46    
Moisture  
Dew Point 15 °F    
Average Humidity 85    
Maximum Humidity 93    
Minimum Humidity 79    
Precipitation  
Precipitation 0.00 in - - ()
Sea Level Pressure  
Sea Level Pressure 30.22 in    
Wind  
Wind Speed 3 mph (ENE)    
Max Wind Speed 6 mph    
Max Gust Speed -    
Visibility 10 miles    
Events      
Averages and records for this station are not official NWS values.
T = Trace of Precipitation, MM = Missing Value Source: NWS Daily Summary

Daily Weather History Graph

Daily Weather History Graph

Search for Another Location

Airport or City:

Trip Planner

Search our weather history database for the weather conditions in past years. The results will help you decide how hot, cold, wet, or windy it might be!

Date:

Astronomy

Apr. 01, 2013 Rise Set
Actual Time 6:37 AM MDT 7:29 PM MDT
Civil Twilight 6:06 AM MDT 8:00 PM MDT
Nautical Twilight 5:29 AM MDT 8:37 PM MDT
Astronomical Twilight 4:51 AM MDT 9:16 PM MDT
Moon 12:57 AM MDT (4/1) 10:09 AM MDT (4/1)
Length of Visible Light 13h 53m
Length of Day
12h 51m
Waning Gibbous, 66% of the Moon is Illuminated
Apr 1
Waning Gibbous
Apr 2
Last Quarter
Apr 10
New
Apr 18
First Quarter
Apr 25
Full

Hourly Weather History & Observations

Time (MDT) Temp. Windchill Dew Point Humidity Pressure Visibility Wind Dir Wind Speed Gust Speed Precip Events Conditions
12:15 AM 21.2 °F 14.9 °F 15.8 °F 80% 30.22 in 10.0 mi East 4.6 mph - N/A   Clear
12:35 AM 21.2 °F 14.9 °F 15.8 °F 80% 30.22 in 10.0 mi East 4.6 mph - N/A   Clear
12:55 AM 21.2 °F 14.9 °F 15.8 °F 80% 30.22 in 10.0 mi East 4.6 mph - N/A   Clear
1:15 AM 19.4 °F - 15.8 °F 86% 30.23 in 10.0 mi Calm Calm - N/A   Clear
1:35 AM 19.4 °F - 15.8 °F 86% 30.23 in 10.0 mi Calm Calm - N/A   Clear
1:55 AM 17.6 °F - 15.8 °F 93% 30.23 in 10.0 mi Calm Calm - N/A   Clear
2:15 AM 17.6 °F - 14.0 °F 86% 30.23 in 10.0 mi Calm Calm - N/A   Clear
2:55 AM 19.4 °F - 14.0 °F 80% 30.23 in 10.0 mi Calm Calm - N/A   Mostly Cloudy
3:15 AM 19.4 °F - 15.8 °F 86% 30.22 in 10.0 mi Calm Calm - N/A   Mostly Cloudy
3:35 AM 19.4 °F 14.3 °F 15.8 °F 86% 30.22 in 10.0 mi ENE 3.5 mph - N/A   Mostly Cloudy
3:55 AM 19.4 °F 11.5 °F 15.8 °F 86% 30.22 in 10.0 mi NE 5.8 mph - N/A   Scattered Clouds
4:15 AM 19.4 °F 11.5 °F 15.8 °F 86% 30.22 in 10.0 mi NE 5.8 mph - N/A   Mostly Cloudy
4:35 AM 19.4 °F 14.3 °F 15.8 °F 86% 30.22 in 10.0 mi ENE 3.5 mph - N/A   Overcast
4:55 AM 19.4 °F 11.5 °F 14.0 °F 80% 30.22 in 10.0 mi ENE 5.8 mph - N/A   Scattered Clouds
5:15 AM 19.4 °F 11.5 °F 15.8 °F 86% 30.22 in 10.0 mi NE 5.8 mph - N/A   Clear
5:35 AM 19.4 °F 11.5 °F 14.0 °F 80% 30.22 in 10.0 mi NE 5.8 mph - N/A   Clear
5:55 AM 17.6 °F 9.3 °F 12.2 °F 79% 30.22 in 10.0 mi NE 5.8 mph - N/A   Clear
6:15 AM 17.6 °F 9.3 °F 14.0 °F 86% 30.21 in 10.0 mi NE 5.8 mph - N/A   Clear
6:35 AM 17.6 °F 12.3 °F 14.0 °F 86% 30.22 in 10.0 mi East 3.5 mph - N/A   Clear
6:55 AM 17.6 °F 10.7 °F 14.0 °F 86% 30.22 in 10.0 mi ENE 4.6 mph - N/A   Clear
7:15 AM 19.4 °F 12.8 °F 15.8 °F 86% 30.22 in 10.0 mi ENE 4.6 mph - N/A   Clear
7:35 AM 19.4 °F 12.8 °F 17.6 °F 93% 30.22 in 10.0 mi NE 4.6 mph - N/A   Scattered Clouds
7:55 AM 21.2 °F 14.9 °F 17.6 °F 86% 30.22 in 10.0 mi NE 4.6 mph - N/A   Partly Cloudy